This is the latest recevied weather packets stored in our database for station/object IW7DVM-13. If no packets are shown the sender has not sent any weather packets the latest 10 day(s).
| Time | Temp. | Humidity | Pressure | Rain* | Wind** | Luminosity | Snow |
|---|---|---|---|---|---|---|---|
| 1787397303 | 35° C | 45% | 1007 hPa | 0 mm | - | - | - |
| 1787397003 | 34.44° C | 46% | 1006.9 hPa | 0 mm | - | - | - |
| 1787396703 | 33.89° C | 51% | 1007.1 hPa | 0 mm | - | - | - |
| 1787396404 | 33.89° C | 52% | 1006.9 hPa | 0 mm | - | - | - |
| 1787396103 | 33.33° C | 52% | 1007 hPa | 0 mm | - | - | - |
| 1787395803 | 33.33° C | 52% | 1007.2 hPa | 0 mm | - | - | - |
| 1787395503 | 32.78° C | 53% | 1007.2 hPa | 0 mm | - | - | - |
| 1787395203 | 32.78° C | 56% | 1007.4 hPa | 0 mm | - | - | - |
| 1787394903 | 32.78° C | 57% | 1007.4 hPa | 0 mm | - | - | - |
| 1787394603 | 32.78° C | 54% | 1007.3 hPa | 0 mm | - | - | - |
| 1787394303 | 33.33° C | 56% | 1007.3 hPa | 0 mm | - | - | - |
| 1787394003 | 33.33° C | 55% | 1007.6 hPa | 0 mm | - | - | - |
| 1787393703 | 33.33° C | 54% | 1007.3 hPa | 0 mm | - | - | - |
| 1787393403 | 33.33° C | 52% | 1007.5 hPa | 0 mm | - | - | - |
| 1787393103 | 33.33° C | 54% | 1007.4 hPa | 0 mm | - | - | - |
| 1787392803 | 32.78° C | 54% | 1007.5 hPa | 0 mm | - | - | - |
| 1787392503 | 32.78° C | 55% | 1007.7 hPa | 0 mm | - | - | - |
| 1787392203 | 33.33° C | 53% | 1007.7 hPa | 0 mm | - | - | - |
| 1787391903 | 33.33° C | 51% | 1007.7 hPa | 0 mm | - | - | - |
| 1787391603 | 33.33° C | 50% | 1007.6 hPa | 0 mm | - | - | - |
| 1787391303 | 33.33° C | 53% | 1007.7 hPa | 0 mm | - | - | - |
| 1787391003 | 33.33° C | 52% | 1007.7 hPa | 0 mm | - | - | - |
| 1787390703 | 33.89° C | 51% | 1007.7 hPa | 0 mm | - | - | - |
| 1787390403 | 33.33° C | 53% | 1007.7 hPa | 0 mm | - | - | - |
| 1787390103 | 33.33° C | 54% | 1007.7 hPa | 0 mm | - | - | - |
* Rain latest hour (hover to see other rain measurements)
** Current wind speed in m/s (hover to see current wind gust speed)